| time (UTC) | temp F | wind direction | speed MPH | gust MPH | rain 1hr in | rain 24hr in | rain mn in | humidity % | barometer mb |
| 20260510131228 | 67 | 216 | 2.0 | 7.0 | 0.00 | 0.00 | 0.00 | 100 | 1014.9 |
| 20260510130730 | 67 | 261 | 2.0 | 5.0 | 0.00 | 0.00 | 0.00 | 100 | 1014.9 |
| 20260510130229 | 67 | 221 | 0.0 | 4.0 | 0.00 | 0.00 | 0.00 | 100 | 1014.9 |
| 20260510125729 | 67 | 244 | 2.0 | 5.0 | 0.00 | 0.00 | 0.00 | 100 | 1014.9 |
| 20260510125227 | 67 | 255 | 2.0 | 5.0 | 0.00 | 0.00 | 0.00 | 100 | 1014.9 |
| 20260510124727 | 67 | 219 | 0.0 | 4.0 | 0.00 | 0.00 | 0.00 | 100 | 1014.9 |
| 20260510124228 | 67 | 252 | 0.0 | 4.0 | 0.00 | 0.00 | 0.00 | 100 | 1015.2 |
| 20260510123728 | 66 | 229 | 2.0 | 5.0 | 0.00 | 0.00 | 0.00 | 100 | 1015.2 |
| 20260510123228 | 66 | 225 | 2.0 | 4.0 | 0.00 | 0.00 | 0.00 | 100 | 1014.9 |
| 20260510122729 | 66 | 269 | 2.0 | 5.0 | 0.00 | 0.00 | 0.00 | 100 | 1014.9 |
| 20260510122228 | 66 | 251 | 0.0 | 4.0 | 0.00 | 0.00 | 0.00 | 100 | 1014.9 |
| 20260510121727 | 66 | 237 | 0.0 | 2.0 | 0.00 | 0.00 | 0.00 | 100 | 1014.9 |
| 20260510121228 | 66 | 235 | 2.0 | 4.0 | 0.00 | 0.00 | 0.00 | 100 | 1014.6 |
| 20260510120727 | 66 | 236 | 0.0 | 4.0 | 0.00 | 0.00 | 0.00 | 100 | 1014.9 |
| 20260510120228 | 65 | 235 | 0.0 | 2.0 | 0.00 | 0.00 | 0.00 | 100 | 1014.6 |
| 20260510115728 | 65 | 242 | 0.0 | 4.0 | 0.00 | 0.00 | 0.00 | 100 | 1014.6 |
| 20260510115227 | 65 | 246 | 0.0 | 2.0 | 0.00 | 0.00 | 0.00 | 100 | 1014.6 |
| 20260510114728 | 65 | 244 | 0.0 | 0.0 | 0.00 | 0.00 | 0.00 | 100 | 1014.6 |
| 20260510114227 | 65 | 241 | 0.0 | 0.0 | 0.00 | 0.00 | 0.00 | 100 | 1014.6 |
| 20260510113727 | 65 | 240 | 0.0 | 0.0 | 0.00 | 0.00 | 0.00 | 100 | 1014.6 |
| 20260510113227 | 65 | 239 | 0.0 | 0.0 | 0.00 | 0.00 | 0.00 | 100 | 1014.6 |
| 20260510112730 | 64 | 239 | 0.0 | 0.0 | 0.00 | 0.00 | 0.00 | 100 | 1014.2 |
| 20260510112227 | 64 | 235 | 0.0 | 4.0 | 0.00 | 0.00 | 0.00 | 100 | 1014.2 |
| 20260510111729 | 64 | 229 | 0.0 | 2.0 | 0.00 | 0.00 | 0.00 | 100 | 1014.2 |
| 20260510111229 | 64 | 227 | 2.0 | 4.0 | 0.00 | 0.00 | 0.00 | 100 | 1014.2 |
| 20260510110728 | 63 | 224 | 0.0 | 4.0 | 0.00 | 0.00 | 0.00 | 100 | 1013.9 |
| 20260510110228 | 63 | 240 | 0.0 | 0.0 | 0.00 | 0.00 | 0.00 | 100 | 1013.9 |
| 20260510105727 | 63 | 244 | 0.0 | 0.0 | 0.00 | 0.00 | 0.00 | 100 | 1013.9 |
| 20260510105227 | 63 | 244 | 0.0 | 0.0 | 0.00 | 0.00 | 0.00 | 100 | 1013.9 |
| 20260510104728 | 63 | 244 | 0.0 | 0.0 | 0.00 | 0.00 | 0.00 | 100 | 1013.9 |
| 20260510104227 | 63 | 245 | 0.0 | 0.0 | 0.00 | 0.00 | 0.00 | 100 | 1013.5 |
| 20260510103730 | 63 | 243 | 0.0 | 0.0 | 0.00 | 0.00 | 0.00 | 100 | 1013.5 |
| 20260510103227 | 63 | 245 | 0.0 | 0.0 | 0.00 | 0.00 | 0.00 | 100 | 1013.5 |
| 20260510102728 | 63 | 245 | 0.0 | 0.0 | 0.00 | 0.00 | 0.00 | 100 | 1013.5 |
| 20260510102228 | 63 | 242 | 0.0 | 0.0 | 0.00 | 0.00 | 0.00 | 100 | 1013.5 |
| 20260510101727 | 63 | 245 | 0.0 | 0.0 | 0.00 | 0.00 | 0.00 | 100 | 1013.5 |
| 20260510101229 | 63 | 245 | 0.0 | 0.0 | 0.00 | 0.00 | 0.00 | 100 | 1013.2 |
| 20260510100728 | 63 | 245 | 0.0 | 0.0 | 0.00 | 0.00 | 0.00 | 100 | 1013.2 |
| 20260510100229 | 63 | 245 | 0.0 | 0.0 | 0.00 | 0.00 | 0.00 | 100 | 1013.2 |
| 20260510095727 | 63 | 245 | 0.0 | 0.0 | 0.00 | 0.00 | 0.00 | 100 | 1013.2 |
| 20260510095227 | 63 | 245 | 0.0 | 0.0 | 0.00 | 0.00 | 0.00 | 100 | 1013.2 |
| 20260510094729 | 63 | 245 | 0.0 | 0.0 | 0.00 | 0.00 | 0.00 | 100 | 1012.9 |
| 20260510094227 | 63 | 244 | 0.0 | 0.0 | 0.00 | 0.00 | 0.00 | 100 | 1012.9 |
| 20260510093727 | 63 | 245 | 0.0 | 0.0 | 0.00 | 0.00 | 0.00 | 100 | 1012.9 |
| 20260510093228 | 63 | 245 | 0.0 | 0.0 | 0.00 | 0.00 | 0.00 | 100 | 1012.9 |
| 20260510092728 | 63 | 245 | 0.0 | 0.0 | 0.00 | 0.00 | 0.00 | 100 | 1012.9 |
| 20260510092228 | 63 | 245 | 0.0 | 0.0 | 0.00 | 0.00 | 0.00 | 100 | 1012.9 |
| 20260510091728 | 63 | 245 | 0.0 | 0.0 | 0.00 | 0.00 | 0.00 | 100 | 1012.9 |
| 20260510091228 | 63 | 229 | 0.0 | 0.0 | 0.00 | 0.00 | 0.00 | 100 | 1012.9 |
| 20260510090727 | 63 | 229 | 0.0 | 2.0 | 0.00 | 0.00 | 0.00 | 100 | 1012.9 |
| 20260510090227 | 63 | 225 | 0.0 | 2.0 | 0.00 | 0.00 | 0.00 | 100 | 1012.9 |
| 20260510085727 | 64 | 225 | 0.0 | 2.0 | 0.00 | 0.00 | 0.00 | 100 | 1012.5 |
| 20260510085227 | 64 | 225 | 0.0 | 0.0 | 0.00 | 0.00 | 0.00 | 100 | 1012.5 |
| 20260510084728 | 64 | 225 | 0.0 | 0.0 | 0.00 | 0.00 | 0.00 | 100 | 1012.5 |
| 20260510084227 | 64 | 225 | 0.0 | 0.0 | 0.00 | 0.00 | 0.00 | 100 | 1012.5 |
| 20260510083728 | 64 | 225 | 0.0 | 0.0 | 0.00 | 0.00 | 0.00 | 100 | 1012.5 |
| 20260510083227 | 64 | 224 | 0.0 | 0.0 | 0.00 | 0.00 | 0.00 | 100 | 1012.5 |
| 20260510082728 | 64 | 225 | 0.0 | 2.0 | 0.00 | 0.00 | 0.00 | 100 | 1012.5 |
| 20260510082227 | 65 | 228 | 0.0 | 2.0 | 0.00 | 0.00 | 0.00 | 100 | 1012.5 |
| 20260510081728 | 64 | 238 | 0.0 | 2.0 | 0.00 | 0.00 | 0.00 | 100 | 1012.5 |
| 20260510081228 | 65 | 235 | 0.0 | 2.0 | 0.00 | 0.00 | 0.00 | 100 | 1012.5 |
| 20260510080729 | 65 | 221 | 0.0 | 2.0 | 0.00 | 0.00 | 0.00 | 100 | 1012.5 |
| 20260510080227 | 65 | 229 | 0.0 | 4.0 | 0.00 | 0.00 | 0.00 | 100 | 1012.5 |
| 20260510075727 | 65 | 219 | 2.0 | 4.0 | 0.00 | 0.00 | 0.00 | 100 | 1012.5 |
| 20260510075228 | 65 | 227 | 0.0 | 4.0 | 0.00 | 0.00 | 0.00 | 100 | 1012.5 |
| 20260510074729 | 65 | 249 | 0.0 | 2.0 | 0.00 | 0.00 | 0.00 | 100 | 1012.5 |
| 20260510074228 | 65 | 235 | 2.0 | 4.0 | 0.00 | 0.00 | 0.00 | 100 | 1012.5 |
| 20260510073727 | 65 | 213 | 2.0 | 5.0 | 0.00 | 0.00 | 0.00 | 100 | 1012.2 |
| 20260510073227 | 65 | 209 | 0.0 | 0.0 | 0.00 | 0.00 | 0.00 | 100 | 1012.2 |
| 20260510072727 | 65 | 232 | 0.0 | 2.0 | 0.00 | 0.00 | 0.00 | 100 | 1012.2 |
| 20260510072227 | 65 | 242 | 0.0 | 0.0 | 0.00 | 0.00 | 0.00 | 100 | 1012.2 |
| 20260510071728 | 65 | 238 | 0.0 | 4.0 | 0.00 | 0.00 | 0.00 | 100 | 1012.2 |
| 20260510071227 | 65 | 231 | 0.0 | 2.0 | 0.00 | 0.00 | 0.00 | 100 | 1012.5 |
| 20260510070730 | 65 | 245 | 0.0 | 4.0 | 0.00 | 0.00 | 0.00 | 100 | 1012.5 |
| 20260510070227 | 65 | 244 | 0.0 | 4.0 | 0.00 | 0.00 | 0.00 | 100 | 1012.2 |
| 20260510065727 | 65 | 237 | 2.0 | 4.0 | 0.00 | 0.00 | 0.00 | 100 | 1012.2 |
| 20260510065228 | 64 | 221 | 0.0 | 4.0 | 0.00 | 0.00 | 0.00 | 100 | 1012.2 |
| 20260510064728 | 65 | 235 | 0.0 | 2.0 | 0.00 | 0.00 | 0.00 | 100 | 1012.2 |
| 20260510064228 | 65 | 239 | 0.0 | 2.0 | 0.00 | 0.00 | 0.00 | 100 | 1012.2 |
| 20260510063729 | 65 | 233 | 0.0 | 2.0 | 0.00 | 0.00 | 0.00 | 100 | 1012.2 |
| 20260510063228 | 65 | 229 | 0.0 | 2.0 | 0.00 | 0.00 | 0.00 | 100 | 1012.2 |
| 20260510062727 | 64 | 239 | 0.0 | 0.0 | 0.00 | 0.00 | 0.00 | 100 | 1012.2 |
| 20260510062229 | 64 | 235 | 0.0 | 0.0 | 0.00 | 0.00 | 0.00 | 100 | 1012.2 |
| 20260510061728 | 65 | 235 | 0.0 | 0.0 | 0.00 | 0.00 | 0.00 | 100 | 1012.2 |
| 20260510061227 | 65 | 235 | 0.0 | 0.0 | 0.00 | 0.00 | 0.00 | 100 | 1012.2 |
| 20260510060728 | 65 | 238 | 0.0 | 0.0 | 0.00 | 0.00 | 0.00 | 100 | 1012.2 |
| 20260510060228 | 66 | 239 | 0.0 | 0.0 | 0.00 | 0.00 | 0.00 | 100 | 1012.2 |
| 20260510055727 | 66 | 235 | 0.0 | 2.0 | 0.00 | 0.00 | 0.00 | 100 | 1012.2 |
| 20260510055227 | 66 | 232 | 0.0 | 4.0 | 0.00 | 0.00 | 0.00 | 100 | 1012.2 |
| 20260510054727 | 66 | 237 | 0.0 | 2.0 | 0.00 | 0.00 | 0.00 | 100 | 1012.2 |
| 20260510054228 | 65 | 243 | 0.0 | 2.0 | 0.00 | 0.00 | 0.00 | 100 | 1012.2 |
| 20260510053728 | 65 | 232 | 0.0 | 4.0 | 0.00 | 0.00 | 0.00 | 100 | 1012.2 |
| 20260510053227 | 66 | 226 | 0.0 | 2.0 | 0.00 | 0.00 | 0.00 | 100 | 1012.2 |
| 20260510052728 | 66 | 233 | 0.0 | 4.0 | 0.00 | 0.00 | 0.00 | 100 | 1012.2 |
| 20260510052228 | 66 | 226 | 0.0 | 4.0 | 0.00 | 0.00 | 0.00 | 100 | 1012.5 |
| 20260510051730 | 66 | 229 | 0.0 | 4.0 | 0.00 | 0.00 | 0.00 | 100 | 1012.5 |
| 20260510051227 | 66 | 224 | 0.0 | 0.0 | 0.00 | 0.00 | 0.00 | 100 | 1012.2 |
| 20260510050728 | 66 | 224 | 0.0 | 4.0 | 0.00 | 0.00 | 0.00 | 100 | 1012.5 |
| 20260510050228 | 66 | 224 | 0.0 | 2.0 | 0.00 | 0.00 | 0.00 | 100 | 1012.2 |
| 20260510045728 | 66 | 222 | 0.0 | 2.0 | 0.00 | 0.00 | 0.00 | 100 | 1012.2 |
| 20260510045227 | 66 | 220 | 0.0 | 0.0 | 0.00 | 0.00 | 0.00 | 100 | 1012.2 |
| 20260510044727 | 66 | 221 | 0.0 | 0.0 | 0.00 | 0.00 | 0.00 | 100 | 1012.2 |
| 20260510044227 | 66 | 219 | 0.0 | 0.0 | 0.00 | 0.00 | 0.00 | 99 | 1012.2 |
| 20260510043727 | 66 | 219 | 0.0 | 0.0 | 0.00 | 0.00 | 0.00 | 100 | 1012.5 |
| 20260510043227 | 66 | 219 | 0.0 | 4.0 | 0.00 | 0.00 | 0.00 | 100 | 1012.5 |
| 20260510042250 | 66 | 227 | 0.0 | 4.0 | 0.00 | 0.00 | 0.00 | 99 | 1012.5 |
| 20260510041728 | 66 | 227 | 0.0 | 4.0 | 0.00 | 0.00 | 0.00 | 99 | 1012.5 |
| 20260510041228 | 66 | 236 | 0.0 | 0.0 | 0.00 | 0.00 | 0.00 | 99 | 1012.5 |
| 20260510040728 | 66 | 236 | 0.0 | 2.0 | 0.00 | 0.00 | 0.00 | 99 | 1012.5 |
| 20260510040227 | 66 | 233 | 0.0 | 0.0 | 0.00 | 0.00 | 0.00 | 99 | 1012.5 |
| 20260510035728 | 66 | 236 | 0.0 | 0.0 | 0.00 | 0.00 | 0.00 | 99 | 1012.5 |
| 20260510035227 | 66 | 236 | 0.0 | 0.0 | 0.00 | 0.00 | 0.00 | 99 | 1012.5 |
| 20260510034727 | 66 | 233 | 0.0 | 0.0 | 0.00 | 0.00 | 0.00 | 99 | 1012.5 |
| 20260510034228 | 67 | 236 | 0.0 | 2.0 | 0.00 | 0.00 | 0.00 | 99 | 1012.5 |
| 20260510033729 | 67 | 236 | 0.0 | 0.0 | 0.00 | 0.00 | 0.00 | 99 | 1012.5 |
| 20260510033228 | 67 | 231 | 0.0 | 2.0 | 0.00 | 0.00 | 0.00 | 99 | 1012.2 |
| 20260510032727 | 67 | 244 | 0.0 | 0.0 | 0.00 | 0.00 | 0.00 | 99 | 1012.2 |
| 20260510032227 | 66 | 244 | 0.0 | 0.0 | 0.00 | 0.00 | 0.00 | 99 | 1012.2 |
| 20260510031728 | 66 | 242 | 0.0 | 0.0 | 0.00 | 0.00 | 0.00 | 99 | 1012.2 |
| 20260510031229 | 67 | 245 | 0.0 | 0.0 | 0.00 | 0.00 | 0.00 | 99 | 1012.2 |
| 20260510030728 | 67 | 245 | 0.0 | 0.0 | 0.00 | 0.00 | 0.00 | 98 | 1012.2 |
| 20260510030228 | 67 | 249 | 0.0 | 0.0 | 0.00 | 0.00 | 0.00 | 98 | 1012.2 |
| 20260510025727 | 67 | 237 | 0.0 | 0.0 | 0.00 | 0.00 | 0.00 | 98 | 1012.2 |
| 20260510025230 | 67 | 240 | 0.0 | 0.0 | 0.00 | 0.00 | 0.00 | 98 | 1012.2 |
| 20260510024728 | 67 | 237 | 0.0 | 0.0 | 0.00 | 0.00 | 0.00 | 98 | 1012.2 |
| 20260510024228 | 67 | 237 | 0.0 | 0.0 | 0.00 | 0.00 | 0.00 | 98 | 1012.2 |
| 20260510023727 | 67 | 237 | 0.0 | 0.0 | 0.00 | 0.00 | 0.00 | 98 | 1012.2 |
| 20260510023228 | 67 | 237 | 0.0 | 0.0 | 0.00 | 0.00 | 0.00 | 98 | 1012.2 |
| 20260510022728 | 67 | 237 | 0.0 | 0.0 | 0.00 | 0.00 | 0.00 | 98 | 1012.2 |
| 20260510022228 | 67 | 237 | 0.0 | 0.0 | 0.00 | 0.00 | 0.00 | 98 | 1012.2 |
| 20260510021728 | 67 | 237 | 0.0 | 0.0 | 0.00 | 0.00 | 0.00 | 98 | 1011.9 |
| 20260510021228 | 67 | 240 | 0.0 | 0.0 | 0.00 | 0.00 | 0.00 | 98 | 1011.9 |
| 20260510020728 | 67 | 240 | 0.0 | 0.0 | 0.00 | 0.00 | 0.00 | 97 | 1011.9 |
| 20260510020229 | 67 | 240 | 0.0 | 0.0 | 0.00 | 0.00 | 0.00 | 97 | 1011.9 |
| 20260510015727 | 68 | 237 | 0.0 | 0.0 | 0.00 | 0.00 | 0.00 | 97 | 1011.9 |
| 20260510015227 | 67 | 237 | 0.0 | 0.0 | 0.00 | 0.00 | 0.00 | 97 | 1011.9 |
| 20260510014727 | 68 | 240 | 0.0 | 0.0 | 0.00 | 0.00 | 0.00 | 97 | 1011.5 |
| 20260510014228 | 68 | 237 | 0.0 | 0.0 | 0.00 | 0.00 | 0.00 | 97 | 1011.5 |
| 20260510013728 | 68 | 239 | 0.0 | 0.0 | 0.00 | 0.00 | 0.00 | 97 | 1011.5 |
| 20260510013228 | 68 | 239 | 0.0 | 0.0 | 0.00 | 0.00 | 0.00 | 97 | 1011.5 |
| 20260510012727 | 68 | 240 | 0.0 | 0.0 | 0.00 | 0.00 | 0.00 | 97 | 1011.5 |
| 20260510012228 | 68 | 237 | 0.0 | 0.0 | 0.00 | 0.00 | 0.00 | 96 | 1011.5 |
| 20260510011728 | 68 | 241 | 0.0 | 0.0 | 0.00 | 0.00 | 0.00 | 96 | 1011.5 |
| 20260510011227 | 68 | 240 | 0.0 | 0.0 | 0.00 | 0.00 | 0.00 | 96 | 1011.2 |
| 20260510010728 | 68 | 237 | 0.0 | 0.0 | 0.00 | 0.00 | 0.00 | 96 | 1011.5 |
| 20260510010228 | 69 | 240 | 0.0 | 0.0 | 0.00 | 0.00 | 0.00 | 96 | 1011.2 |
| 20260510005728 | 69 | 240 | 0.0 | 0.0 | 0.00 | 0.00 | 0.00 | 96 | 1011.2 |
| 20260510005227 | 69 | 240 | 0.0 | 0.0 | 0.00 | 0.00 | 0.00 | 96 | 1011.2 |
| 20260510004727 | 69 | 240 | 0.0 | 0.0 | 0.00 | 0.00 | 0.00 | 96 | 1011.2 |
| 20260510004227 | 69 | 238 | 0.0 | 0.0 | 0.00 | 0.00 | 0.00 | 95 | 1011.5 |
| 20260510003729 | 69 | 261 | 0.0 | 0.0 | 0.00 | 0.00 | 0.00 | 95 | 1011.5 |
| 20260510003227 | 69 | 265 | 0.0 | 0.0 | 0.00 | 0.00 | 0.00 | 95 | 1011.5 |
| 20260510002727 | 69 | 226 | 0.0 | 0.0 | 0.00 | 0.00 | 0.00 | 95 | 1011.5 |
| 20260510002227 | 69 | 226 | 0.0 | 0.0 | 0.00 | 0.00 | 0.00 | 94 | 1011.2 |
| 20260510001727 | 69 | 226 | 0.0 | 0.0 | 0.00 | 0.00 | 0.00 | 94 | 1011.2 |
| 20260510001227 | 70 | 226 | 0.0 | 0.0 | 0.00 | 0.00 | 0.00 | 94 | 1011.2 |
| 20260510000728 | 70 | 226 | 0.0 | 0.0 | 0.00 | 0.00 | 0.00 | 94 | 1010.8 |
| 20260510000229 | 70 | 226 | 0.0 | 0.0 | 0.00 | 0.00 | 0.00 | 94 | 1010.8 |
| 20260509235728 | 70 | 226 | 0.0 | 0.0 | 0.00 | 0.00 | 0.00 | 94 | 1010.8 |
| 20260509235228 | 70 | 226 | 0.0 | 0.0 | 0.00 | 0.00 | 0.00 | 93 | 1010.8 |
| 20260509234728 | 70 | 226 | 0.0 | 0.0 | 0.00 | 0.00 | 0.00 | 93 | 1010.8 |
| 20260509234227 | 70 | 225 | 0.0 | 0.0 | 0.00 | 0.00 | 0.00 | 93 | 1010.5 |
| 20260509233728 | 71 | 214 | 0.0 | 0.0 | 0.00 | 0.00 | 0.00 | 93 | 1010.5 |
| 20260509233227 | 71 | 215 | 0.0 | 0.0 | 0.00 | 0.00 | 0.00 | 92 | 1010.5 |
| 20260509232728 | 71 | 219 | 0.0 | 2.0 | 0.00 | 0.00 | 0.00 | 92 | 1010.5 |
| 20260509231728 | 71 | 209 | 0.0 | 2.0 | 0.00 | 0.00 | 0.00 | 92 | 1010.8 |
| 20260509231227 | 71 | 218 | 0.0 | 2.0 | 0.00 | 0.00 | 0.00 | 91 | 1010.5 |
| 20260509230728 | 71 | 215 | 0.0 | 2.0 | 0.00 | 0.00 | 0.00 | 91 | 1010.5 |
| 20260509230227 | 71 | 212 | 0.0 | 4.0 | 0.00 | 0.00 | 0.00 | 91 | 1010.5 |
| 20260509225728 | 72 | 211 | 0.0 | 4.0 | 0.00 | 0.00 | 0.00 | 91 | 1010.5 |
| 20260509225227 | 72 | 210 | 0.0 | 0.0 | 0.00 | 0.00 | 0.00 | 90 | 1010.8 |
| 20260509224728 | 72 | 194 | 0.0 | 2.0 | 0.00 | 0.00 | 0.00 | 90 | 1010.5 |
| 20260509224227 | 72 | 208 | 0.0 | 0.0 | 0.00 | 0.00 | 0.00 | 90 | 1010.5 |
| 20260509223728 | 72 | 210 | 0.0 | 4.0 | 0.00 | 0.00 | 0.00 | 90 | 1010.5 |
| 20260509223227 | 72 | 193 | 0.0 | 4.0 | 0.00 | 0.00 | 0.00 | 89 | 1010.5 |
| 20260509222728 | 72 | 211 | 2.0 | 5.0 | 0.00 | 0.00 | 0.00 | 89 | 1010.5 |
| 20260509222227 | 72 | 187 | 0.0 | 7.0 | 0.00 | 0.00 | 0.00 | 89 | 1010.5 |
| 20260509221728 | 72 | 214 | 0.0 | 2.0 | 0.00 | 0.00 | 0.00 | 89 | 1010.5 |
| 20260509221228 | 72 | 215 | 0.0 | 2.0 | 0.00 | 0.00 | 0.00 | 88 | 1010.5 |
| 20260509220727 | 72 | 225 | 0.0 | 4.0 | 0.00 | 0.00 | 0.00 | 88 | 1010.5 |
| 20260509220228 | 72 | 212 | 2.0 | 4.0 | 0.00 | 0.00 | 0.00 | 88 | 1010.5 |
| 20260509215727 | 73 | 225 | 2.0 | 7.0 | 0.00 | 0.00 | 0.00 | 87 | 1010.5 |
| 20260509215229 | 73 | 223 | 2.0 | 9.0 | 0.00 | 0.00 | 0.00 | 87 | 1010.5 |
| 20260509214728 | 73 | 220 | 2.0 | 7.0 | 0.00 | 0.00 | 0.00 | 87 | 1010.5 |
| 20260509214228 | 73 | 229 | 2.0 | 4.0 | 0.00 | 0.00 | 0.00 | 87 | 1010.5 |
| 20260509213727 | 73 | 207 | 0.0 | 5.0 | 0.00 | 0.00 | 0.00 | 87 | 1010.5 |
| 20260509213229 | 73 | 217 | 0.0 | 5.0 | 0.00 | 0.00 | 0.00 | 87 | 1010.5 |
| 20260509212728 | 73 | 204 | 0.0 | 5.0 | 0.00 | 0.00 | 0.00 | 87 | 1010.5 |
| 20260509212227 | 73 | 220 | 4.0 | 9.0 | 0.00 | 0.00 | 0.00 | 86 | 1010.5 |
| 20260509211728 | 73 | 213 | 2.0 | 7.0 | 0.00 | 0.00 | 0.00 | 86 | 1010.5 |
| 20260509211228 | 73 | 203 | 0.0 | 7.0 | 0.00 | 0.00 | 0.00 | 85 | 1010.2 |
| 20260509210727 | 73 | 218 | 2.0 | 7.0 | 0.00 | 0.00 | 0.00 | 85 | 1010.5 |
| 20260509210228 | 73 | 201 | 2.0 | 7.0 | 0.00 | 0.00 | 0.00 | 85 | 1010.5 |
| 20260509205728 | 73 | 222 | 2.0 | 4.0 | 0.00 | 0.00 | 0.00 | 85 | 1010.5 |
| 20260509205229 | 73 | 197 | 4.0 | 9.0 | 0.00 | 0.00 | 0.00 | 85 | 1010.5 |
| 20260509204728 | 73 | 196 | 4.0 | 9.0 | 0.00 | 0.00 | 0.00 | 84 | 1010.5 |
| 20260509204227 | 74 | 208 | 2.0 | 5.0 | 0.00 | 0.00 | 0.00 | 84 | 1010.2 |
| 20260509203727 | 74 | 212 | 0.0 | 4.0 | 0.00 | 0.00 | 0.00 | 84 | 1010.5 |
| 20260509203228 | 74 | 221 | 2.0 | 5.0 | 0.00 | 0.00 | 0.00 | 83 | 1010.5 |
| 20260509202728 | 74 | 163 | 2.0 | 7.0 | 0.00 | 0.00 | 0.00 | 84 | 1010.5 |
| 20260509202227 | 74 | 177 | 2.0 | 5.0 | 0.00 | 0.00 | 0.00 | 84 | 1010.8 |
| 20260509201228 | 74 | 154 | 2.0 | 5.0 | 0.00 | 0.00 | 0.00 | 84 | 1010.8 |
| 20260509200729 | 74 | 218 | 2.0 | 11.0 | 0.00 | 0.00 | 0.00 | 84 | 1010.5 |
| 20260509200228 | 74 | 206 | 0.0 | 4.0 | 0.00 | 0.00 | 0.00 | 83 | 1010.5 |
| 20260509195727 | 74 | 191 | 2.0 | 5.0 | 0.00 | 0.00 | 0.00 | 83 | 1010.8 |
| 20260509195227 | 74 | 129 | 0.0 | 5.0 | 0.00 | 0.00 | 0.00 | 83 | 1010.8 |
| 20260509194728 | 74 | 205 | 0.0 | 5.0 | 0.00 | 0.00 | 0.00 | 83 | 1010.8 |
| 20260509194228 | 74 | 191 | 2.0 | 7.0 | 0.00 | 0.00 | 0.00 | 82 | 1010.8 |
| 20260509193728 | 75 | 200 | 0.0 | 4.0 | 0.00 | 0.00 | 0.00 | 82 | 1010.8 |
| 20260509193228 | 75 | 144 | 2.0 | 5.0 | 0.00 | 0.00 | 0.00 | 81 | 1010.8 |
| 20260509192727 | 76 | 199 | 0.0 | 4.0 | 0.00 | 0.00 | 0.00 | 81 | 1010.8 |
| 20260509192227 | 76 | 202 | 0.0 | 2.0 | 0.00 | 0.00 | 0.00 | 81 | 1010.8 |
| 20260509191727 | 75 | 206 | 2.0 | 9.0 | 0.00 | 0.00 | 0.00 | 81 | 1010.8 |
| 20260509191228 | 75 | 203 | 0.0 | 2.0 | 0.00 | 0.00 | 0.00 | 82 | 1010.8 |
| 20260509190728 | 75 | 166 | 0.0 | 4.0 | 0.00 | 0.00 | 0.00 | 82 | 1011.2 |
| 20260509190228 | 75 | 246 | 2.0 | 11.0 | 0.00 | 0.00 | 0.00 | 81 | 1011.2 |
| 20260509185728 | 75 | 238 | 2.0 | 11.0 | 0.00 | 0.00 | 0.00 | 81 | 1010.8 |
| 20260509185228 | 75 | 196 | 2.0 | 7.0 | 0.00 | 0.00 | 0.00 | 81 | 1010.8 |
| 20260509184728 | 75 | 237 | 4.0 | 13.0 | 0.00 | 0.00 | 0.00 | 80 | 1011.2 |
| 20260509184228 | 74 | 212 | 2.0 | 5.0 | 0.00 | 0.00 | 0.00 | 81 | 1011.2 |
| 20260509183728 | 74 | 211 | 4.0 | 9.0 | 0.00 | 0.00 | 0.00 | 81 | 1011.2 |
| 20260509183229 | 75 | 179 | 7.0 | 13.0 | 0.00 | 0.00 | 0.00 | 80 | 1011.2 |
| 20260509182727 | 75 | 212 | 2.0 | 7.0 | 0.00 | 0.00 | 0.00 | 80 | 1011.2 |
| 20260509182227 | 75 | 221 | 4.0 | 11.0 | 0.00 | 0.00 | 0.00 | 80 | 1011.2 |
| 20260509181728 | 75 | 183 | 2.0 | 5.0 | 0.00 | 0.00 | 0.00 | 80 | 1011.5 |
| 20260509181227 | 74 | 260 | 2.0 | 5.0 | 0.00 | 0.00 | 0.00 | 79 | 1011.5 |
| 20260509180729 | 75 | 187 | 2.0 | 11.0 | 0.00 | 0.00 | 0.00 | 79 | 1011.5 |
| 20260509180227 | 75 | 218 | 4.0 | 11.0 | 0.00 | 0.00 | 0.00 | 79 | 1011.5 |
| 20260509175729 | 75 | 180 | 4.0 | 9.0 | 0.00 | 0.00 | 0.00 | 78 | 1011.9 |
| 20260509175227 | 77 | 207 | 4.0 | 13.0 | 0.00 | 0.00 | 0.00 | 77 | 1011.5 |
| 20260509174727 | 75 | 175 | 2.0 | 7.0 | 0.00 | 0.00 | 0.00 | 78 | 1011.5 |
| 20260509174230 | 76 | 237 | 4.0 | 14.0 | 0.00 | 0.00 | 0.00 | 77 | 1011.5 |
| 20260509173728 | 75 | 192 | 2.0 | 5.0 | 0.00 | 0.00 | 0.00 | 78 | 1011.5 |
| 20260509173227 | 76 | 174 | 2.0 | 7.0 | 0.00 | 0.00 | 0.00 | 77 | 1011.9 |
| 20260509172727 | 74 | 183 | 2.0 | 5.0 | 0.00 | 0.00 | 0.00 | 78 | 1011.9 |
| 20260509172229 | 74 | 138 | 0.0 | 4.0 | 0.00 | 0.00 | 0.00 | 80 | 1011.9 |
| 20260509171729 | 74 | 220 | 2.0 | 4.0 | 0.00 | 0.00 | 0.00 | 80 | 1012.2 |
| 20260509171229 | 74 | 201 | 2.0 | 5.0 | 0.00 | 0.00 | 0.00 | 78 | 1012.2 |
| 20260509170728 | 74 | 92 | 4.0 | 5.0 | 0.00 | 0.00 | 0.00 | 79 | 1012.2 |
| 20260509170229 | 74 | 213 | 7.0 | 11.0 | 0.00 | 0.00 | 0.00 | 79 | 1012.5 |
| 20260509165728 | 74 | 46 | 0.0 | 4.0 | 0.00 | 0.00 | 0.00 | 78 | 1012.5 |
| 20260509165228 | 74 | 232 | 7.0 | 11.0 | 0.00 | 0.00 | 0.00 | 77 | 1012.5 |
| 20260509164728 | 74 | 212 | 9.0 | 13.0 | 0.00 | 0.00 | 0.00 | 76 | 1012.5 |
| 20260509164227 | 74 | 247 | 4.0 | 11.0 | 0.00 | 0.00 | 0.00 | 76 | 1012.5 |
| 20260509163727 | 74 | 91 | 2.0 | 4.0 | 0.00 | 0.00 | 0.00 | 76 | 1012.5 |
| 20260509163227 | 74 | 198 | 2.0 | 5.0 | 0.00 | 0.00 | 0.00 | 78 | 1012.9 |
| 20260509162728 | 73 | 216 | 0.0 | 4.0 | 0.00 | 0.00 | 0.00 | 77 | 1012.5 |
| 20260509162227 | 73 | 296 | 7.0 | 11.0 | 0.00 | 0.00 | 0.00 | 77 | 1012.9 |
| 20260509161728 | 74 | 236 | 2.0 | 9.0 | 0.00 | 0.00 | 0.00 | 75 | 1012.9 |
| 20260509161228 | 72 | 124 | 0.0 | 4.0 | 0.00 | 0.00 | 0.00 | 75 | 1012.9 |
| 20260509160727 | 72 | 299 | 0.0 | 2.0 | 0.00 | 0.00 | 0.00 | 75 | 1012.9 |
| 20260509160229 | 72 | 206 | 0.0 | 4.0 | 0.00 | 0.00 | 0.00 | 76 | 1012.9 |
| 20260509155730 | 72 | 125 | 0.0 | 5.0 | 0.00 | 0.00 | 0.00 | 76 | 1012.9 |
| 20260509155227 | 72 | 226 | 0.0 | 2.0 | 0.00 | 0.00 | 0.00 | 78 | 1012.9 |
| 20260509154728 | 71 | 202 | 0.0 | 2.0 | 0.00 | 0.00 | 0.00 | 78 | 1012.9 |
| 20260509154228 | 72 | 211 | 0.0 | 4.0 | 0.00 | 0.00 | 0.00 | 77 | 1013.2 |
| 20260509153728 | 71 | 260 | 4.0 | 5.0 | 0.00 | 0.00 | 0.00 | 76 | 1013.2 |
| 20260509153227 | 71 | 248 | 2.0 | 4.0 | 0.00 | 0.00 | 0.00 | 78 | 1013.2 |
| 20260509152729 | 71 | 210 | 2.0 | 4.0 | 0.00 | 0.00 | 0.00 | 76 | 1013.5 |
| 20260509152228 | 71 | 224 | 0.0 | 2.0 | 0.00 | 0.00 | 0.00 | 83 | 1013.5 |
| 20260509151728 | 70 | 233 | 0.0 | 4.0 | 0.00 | 0.00 | 0.00 | 85 | 1013.5 |
| 20260509151229 | 70 | 177 | 0.0 | 4.0 | 0.00 | 0.00 | 0.00 | 84 | 1013.5 |
| 20260509150727 | 70 | 199 | 2.0 | 4.0 | 0.00 | 0.00 | 0.00 | 84 | 1013.9 |
| 20260509150229 | 69 | 196 | 0.0 | 4.0 | 0.00 | 0.00 | 0.00 | 86 | 1013.9 |
| 20260509145727 | 69 | 113 | 2.0 | 5.0 | 0.00 | 0.00 | 0.00 | 88 | 1013.9 |
| 20260509145229 | 69 | 47 | 2.0 | 5.0 | 0.00 | 0.00 | 0.00 | 89 | 1014.2 |
| 20260509144249 | 68 | 273 | 2.0 | 4.0 | 0.00 | 0.00 | 0.00 | 86 | 1014.2 |
| 20260509143729 | 68 | 6 | 0.0 | 4.0 | 0.00 | 0.00 | 0.00 | 86 | 1014.2 |
| 20260509143228 | 68 | 281 | 0.0 | 4.0 | 0.00 | 0.00 | 0.00 | 86 | 1014.2 |
| 20260509142727 | 68 | 334 | 2.0 | 4.0 | 0.00 | 0.00 | 0.00 | 86 | 1014.2 |
| 20260509142228 | 68 | 312 | 0.0 | 4.0 | 0.00 | 0.00 | 0.00 | 86 | 1014.2 |
| 20260509141728 | 68 | 262 | 2.0 | 4.0 | 0.00 | 0.00 | 0.00 | 86 | 1014.2 |
| 20260509141227 | 68 | 353 | 2.0 | 4.0 | 0.00 | 0.00 | 0.00 | 86 | 1013.9 |
| 20260509140727 | 68 | 17 | 2.0 | 4.0 | 0.00 | 0.00 | 0.00 | 87 | 1013.9 |
| 20260509140229 | 67 | 255 | 0.0 | 4.0 | 0.00 | 0.00 | 0.00 | 89 | 1013.9 |
| 20260509135727 | 67 | 307 | 2.0 | 4.0 | 0.00 | 0.00 | 0.00 | 89 | 1013.9 |
| 20260509135229 | 66 | 332 | 0.0 | 4.0 | 0.00 | 0.00 | 0.00 | 90 | 1013.9 |
| 20260509134729 | 66 | 357 | 2.0 | 4.0 | 0.00 | 0.00 | 0.00 | 91 | 1013.9 |
| 20260509134227 | 66 | 71 | 0.0 | 4.0 | 0.00 | 0.00 | 0.00 | 92 | 1013.9 |
| 20260509133728 | 65 | 244 | 0.0 | 2.0 | 0.00 | 0.00 | 0.00 | 93 | 1014.2 |
| 20260509133229 | 64 | 281 | 2.0 | 4.0 | 0.00 | 0.00 | 0.00 | 94 | 1014.2 |
| 20260509132727 | 64 | 236 | 0.0 | 0.0 | 0.00 | 0.00 | 0.00 | 95 | 1014.2 |
| 20260509132229 | 64 | 277 | 0.0 | 2.0 | 0.00 | 0.00 | 0.00 | 96 | 1014.2 |
| 20260509131728 | 63 | 263 | 0.0 | 2.0 | 0.00 | 0.00 | 0.00 | 96 | 1014.2 |